| time (UTC) | temp C | wind direction | speed KPH | gust KPH | rain 1hr cm | rain 24hr cm | rain mn cm | humidity % | barometer mb |
| 20260510194603 | 27 | 63 | 1.6 | 9.7 | 0.00 | 0.00 | 0.00 | 46 | 1014.3 |
| 20260510193059 | 27 | 57 | 1.6 | 11.3 | 0.00 | 0.00 | 0.00 | 48 | 1014.5 |
| 20260510191557 | 27 | 63 | 1.6 | 8.0 | 0.00 | 0.00 | 0.00 | 46 | 1014.6 |
| 20260510190105 | 27 | 51 | 3.2 | 8.0 | 0.00 | 0.00 | 0.00 | 46 | 1014.7 |
| 20260510184556 | 27 | 352 | 1.6 | 8.0 | 0.00 | 0.00 | 0.00 | 48 | 1014.9 |
| 20260510183054 | 27 | 38 | 4.8 | 11.3 | 0.00 | 0.00 | 0.00 | 47 | 1015.0 |
| 20260510181551 | 27 | 46 | 4.8 | 11.3 | 0.00 | 0.00 | 0.00 | 48 | 1014.9 |
| 20260510180103 | 27 | 313 | 1.6 | 8.0 | 0.00 | 0.00 | 0.00 | 54 | 1014.9 |
| 20260510174549 | 26 | 40 | 3.2 | 9.7 | 0.00 | 0.00 | 0.00 | 49 | 1015.1 |
| 20260510173050 | 26 | 280 | 0.0 | 6.4 | 0.00 | 0.00 | 0.00 | 58 | 1015.3 |
| 20260510171549 | 26 | 37 | 3.2 | 8.0 | 0.00 | 0.00 | 0.00 | 56 | 1015.5 |
| 20260510170042 | 25 | 300 | 0.0 | 6.4 | 0.00 | 0.00 | 0.00 | 60 | 1015.5 |
| 20260510164548 | 25 | 304 | 1.6 | 8.0 | 0.00 | 0.00 | 0.00 | 64 | 1015.5 |
| 20260510163053 | 24 | 284 | 0.0 | 6.4 | 0.00 | 0.00 | 0.00 | 70 | 1015.7 |
| 20260510161536 | 24 | 31 | 0.0 | 4.8 | 0.00 | 0.00 | 0.00 | 71 | 1015.9 |
| 20260510160031 | 23 | 164 | 0.0 | 4.8 | 0.00 | 0.00 | 0.00 | 70 | 1016.1 |
| 20260510154531 | 23 | 82 | 0.0 | 4.8 | 0.00 | 0.00 | 0.00 | 72 | 1016.0 |
| 20260510153027 | 22 | 156 | 0.0 | 0.0 | 0.00 | 0.00 | 0.00 | 72 | 1016.1 |
| 20260510151525 | 22 | 53 | 0.0 | 1.6 | 0.00 | 0.00 | 0.00 | 75 | 1016.2 |
| 20260510150034 | 22 | 48 | 0.0 | 8.0 | 0.00 | 0.00 | 0.00 | 73 | 1016.2 |
| 20260510144520 | 21 | 60 | 0.0 | 1.6 | 0.00 | 0.00 | 0.00 | 75 | 1016.2 |
| 20260510143029 | 21 | 56 | 0.0 | 4.8 | 0.00 | 0.00 | 0.00 | 77 | 1016.1 |
| 20260510141513 | 20 | 28 | 0.0 | 6.4 | 0.00 | 0.00 | 0.00 | 78 | 1016.1 |
| 20260510140011 | 20 | 250 | 0.0 | 1.6 | 0.00 | 0.00 | 0.00 | 80 | 1016.1 |
| 20260510134539 | 18 | 165 | 0.0 | 1.6 | 0.00 | 0.00 | 0.00 | 85 | 1016.1 |
| 20260510133002 | 17 | 224 | 0.0 | 0.0 | 0.00 | 0.00 | 0.00 | 89 | 1016.1 |
| 20260510131605 | 17 | 209 | 0.0 | 0.0 | 0.00 | 0.00 | 0.00 | 94 | 1016.2 |
| 20260510130056 | 16 | 205 | 0.0 | 0.0 | 0.00 | 0.00 | 0.00 | 96 | 1016.2 |
| 20260510124559 | 15 | 204 | 0.0 | 0.0 | 0.00 | 0.00 | 0.00 | 97 | 1016.2 |
| 20260510123051 | 15 | 205 | 0.0 | 0.0 | 0.00 | 0.00 | 0.00 | 98 | 1016.1 |
| 20260510121546 | 13 | 122 | 0.0 | 0.0 | 0.00 | 0.00 | 0.00 | 99 | 1016.1 |
| 20260510120044 | 11 | 122 | 0.0 | 0.0 | 0.00 | 0.00 | 0.00 | 98 | 1015.8 |
| 20260510114546 | 10 | 122 | 0.0 | 0.0 | 0.00 | 0.00 | 0.00 | 98 | 1015.5 |
| 20260510113040 | 10 | 121 | 0.0 | 0.0 | 0.00 | 0.00 | 0.00 | 98 | 1015.3 |
| 20260510111538 | 9 | 121 | 0.0 | 0.0 | 0.00 | 0.00 | 0.00 | 97 | 1015.1 |
| 20260510110036 | 9 | 121 | 0.0 | 0.0 | 0.00 | 0.00 | 0.00 | 97 | 1014.7 |
| 20260510104534 | 9 | 121 | 0.0 | 0.0 | 0.00 | 0.00 | 0.00 | 97 | 1014.6 |
| 20260510103032 | 9 | 121 | 0.0 | 0.0 | 0.00 | 0.00 | 0.00 | 97 | 1014.5 |
| 20260510101531 | 10 | 121 | 0.0 | 0.0 | 0.00 | 0.00 | 0.00 | 98 | 1014.5 |
| 20260510100041 | 9 | 121 | 0.0 | 0.0 | 0.00 | 0.00 | 0.00 | 97 | 1014.2 |
| 20260510094535 | 9 | 121 | 0.0 | 0.0 | 0.00 | 0.00 | 0.00 | 96 | 1014.1 |
| 20260510093024 | 10 | 121 | 0.0 | 0.0 | 0.00 | 0.00 | 0.00 | 98 | 1013.9 |
| 20260510091521 | 10 | 121 | 0.0 | 0.0 | 0.00 | 0.00 | 0.00 | 97 | 1013.6 |
| 20260510090022 | 10 | 121 | 0.0 | 0.0 | 0.00 | 0.00 | 0.00 | 97 | 1013.5 |
| 20260510084517 | 10 | 121 | 0.0 | 0.0 | 0.00 | 0.00 | 0.00 | 97 | 1013.3 |
| 20260510083020 | 10 | 121 | 0.0 | 0.0 | 0.00 | 0.00 | 0.00 | 97 | 1013.1 |
| 20260510081512 | 10 | 121 | 0.0 | 0.0 | 0.00 | 0.00 | 0.00 | 97 | 1013.0 |
| 20260510080023 | 10 | 121 | 0.0 | 0.0 | 0.00 | 0.00 | 0.00 | 96 | 1012.7 |
| 20260510074511 | 10 | 121 | 0.0 | 0.0 | 0.00 | 0.00 | 0.00 | 96 | 1012.6 |
| 20260510073007 | 10 | 121 | 0.0 | 0.0 | 0.00 | 0.00 | 0.00 | 96 | 1012.5 |
| 20260510071503 | 10 | 121 | 0.0 | 0.0 | 0.00 | 0.00 | 0.00 | 96 | 1012.4 |
| 20260510070002 | 10 | 121 | 0.0 | 0.0 | 0.00 | 0.00 | 0.00 | 95 | 1012.6 |
| 20260510064601 | 10 | 121 | 0.0 | 0.0 | 0.00 | 0.00 | 0.00 | 96 | 1012.5 |
| 20260510063058 | 11 | 121 | 0.0 | 0.0 | 0.00 | 0.00 | 0.00 | 94 | 1012.5 |
| 20260510061556 | 11 | 121 | 0.0 | 0.0 | 0.00 | 0.00 | 0.00 | 95 | 1012.5 |
| 20260510060053 | 11 | 121 | 0.0 | 0.0 | 0.00 | 0.00 | 0.00 | 95 | 1012.6 |
| 20260510054550 | 12 | 121 | 0.0 | 0.0 | 0.00 | 0.00 | 0.00 | 96 | 1012.7 |
| 20260510053048 | 12 | 121 | 0.0 | 0.0 | 0.00 | 0.00 | 0.00 | 94 | 1012.7 |
| 20260510051548 | 12 | 121 | 0.0 | 0.0 | 0.00 | 0.00 | 0.00 | 94 | 1012.7 |
| 20260510050049 | 12 | 121 | 0.0 | 0.0 | 0.00 | 0.00 | 0.00 | 93 | 1012.7 |
| 20260510044543 | 12 | 121 | 0.0 | 0.0 | 0.00 | 0.00 | 0.00 | 92 | 1012.7 |
| 20260510043042 | 13 | 121 | 0.0 | 0.0 | 0.00 | 0.00 | 0.00 | 92 | 1012.6 |
| 20260510041536 | 13 | 120 | 0.0 | 0.0 | 0.00 | 0.00 | 0.00 | 91 | 1012.6 |
| 20260510040034 | 13 | 120 | 0.0 | 0.0 | 0.00 | 0.00 | 0.00 | 89 | 1012.6 |
| 20260510034541 | 14 | 120 | 0.0 | 0.0 | 0.00 | 0.00 | 0.00 | 89 | 1012.5 |
| 20260510033031 | 14 | 120 | 0.0 | 0.0 | 0.00 | 0.00 | 0.00 | 88 | 1012.5 |
| 20260510031531 | 14 | 120 | 0.0 | 0.0 | 0.00 | 0.00 | 0.00 | 86 | 1012.4 |
| 20260510030029 | 15 | 120 | 0.0 | 0.0 | 0.00 | 0.00 | 0.00 | 87 | 1012.3 |
| 20260510024529 | 15 | 120 | 0.0 | 0.0 | 0.00 | 0.00 | 0.00 | 86 | 1012.1 |
| 20260510023027 | 15 | 120 | 0.0 | 0.0 | 0.00 | 0.00 | 0.00 | 84 | 1012.1 |
| 20260510021526 | 15 | 121 | 0.0 | 0.0 | 0.00 | 0.00 | 0.00 | 83 | 1012.0 |
| 20260510020025 | 16 | 120 | 0.0 | 0.0 | 0.00 | 0.00 | 0.00 | 81 | 1011.7 |
| 20260510014526 | 16 | 120 | 0.0 | 0.0 | 0.00 | 0.00 | 0.00 | 78 | 1011.4 |
| 20260510013025 | 17 | 121 | 0.0 | 0.0 | 0.00 | 0.00 | 0.00 | 75 | 1011.1 |
| 20260510011536 | 17 | 121 | 0.0 | 0.0 | 0.00 | 0.00 | 0.00 | 73 | 1010.8 |
| 20260510010022 | 18 | 121 | 0.0 | 0.0 | 0.00 | 0.00 | 0.00 | 72 | 1010.6 |
| 20260510004523 | 18 | 120 | 0.0 | 0.0 | 0.00 | 0.00 | 0.00 | 70 | 1010.4 |
| 20260510003024 | 19 | 121 | 0.0 | 0.0 | 0.00 | 0.00 | 0.00 | 67 | 1010.4 |
| 20260510001523 | 20 | 121 | 0.0 | 0.0 | 0.00 | 0.00 | 0.00 | 66 | 1010.1 |
| 20260510000034 | 20 | 121 | 0.0 | 0.0 | 0.00 | 0.00 | 0.00 | 64 | 1009.9 |
| 20260509234522 | 21 | 120 | 0.0 | 0.0 | 0.00 | 0.00 | 0.00 | 62 | 1009.8 |
| 20260509233019 | 21 | 120 | 0.0 | 0.0 | 0.00 | 0.00 | 0.00 | 62 | 1009.6 |
| 20260509231518 | 22 | 120 | 0.0 | 0.0 | 0.00 | 0.00 | 0.00 | 60 | 1009.3 |
| 20260509230019 | 22 | 120 | 0.0 | 0.0 | 0.00 | 0.00 | 0.00 | 58 | 1009.3 |
| 20260509224518 | 22 | 120 | 0.0 | 0.0 | 0.00 | 0.00 | 0.00 | 57 | 1009.3 |
| 20260509223017 | 23 | 138 | 0.0 | 0.0 | 0.00 | 0.00 | 0.00 | 56 | 1009.2 |
| 20260509221515 | 23 | 129 | 0.0 | 3.2 | 0.00 | 0.00 | 0.00 | 53 | 1009.1 |
| 20260509220014 | 24 | 60 | 4.8 | 11.3 | 0.00 | 0.00 | 0.00 | 50 | 1009.3 |
| 20260509214520 | 24 | 76 | 0.0 | 3.2 | 0.00 | 0.00 | 0.00 | 53 | 1009.2 |
| 20260509213013 | 24 | 70 | 0.0 | 17.7 | 0.00 | 0.00 | 0.00 | 50 | 1009.2 |
| 20260509211515 | 25 | 146 | 0.0 | 6.4 | 0.00 | 0.00 | 0.00 | 51 | 1009.0 |
| 20260509210007 | 25 | 61 | 3.2 | 8.0 | 0.00 | 0.00 | 0.00 | 52 | 1008.8 |
| 20260509204504 | 24 | 63 | 0.0 | 3.2 | 0.00 | 0.00 | 0.00 | 63 | 1008.7 |
| 20260509203001 | 24 | 44 | 0.0 | 6.4 | 0.00 | 0.00 | 0.00 | 62 | 1009.0 |
| 20260509201608 | 24 | 46 | 0.0 | 4.8 | 0.00 | 0.00 | 0.00 | 62 | 1009.2 |
| 20260509200107 | 23 | 292 | 1.6 | 6.4 | 0.00 | 0.00 | 0.00 | 64 | 1009.5 |